Home   Weather   Oranjestad   Past weeks
Flag for Aruba

Past Weather in Oranjestad, Aruba — Yesterday and Last 2 Weeks

Now
88 °F

Scattered clouds.


Feels Like: 98 °F
Forecast: 88 / 80 °F
Wind: 24 mph from East

Location: Queen Beatrix Airport - Aruba

Current Time: May 19, 2019 at 2:39:06 pm

Latest Report: May 19, 2019 at 2:00 pm


Visibility: N/A

Pressure: 29.86 "Hg

Humidity: 66%

Dew Point: 75 °F

Location of OranjestadLocation

Past Weather in Oranjestad — Graph

°F

Oranjestad Temperature Yesterday

Maximum temperature yesterday: 88 °F (at 11:00 am)
Minimum temperature yesterday: 81 °F (at 12:00 am)
Average temperature yesterday: 83 °F

High & Low Weather Summary for the Past Weeks

 TemperatureHumidityPressure
High90 °F (May 7, 1:00 pm)89% (May 12, 3:00 am)29.95 "Hg (May 12, 3:00 am)
Low79 °F (May 5, 5:00 am)62% (May 4, 1:00 pm)29.77 "Hg (May 5, 6:00 pm)
Average83 °F76%29.87 "Hg
* Reported May 4 1:00 pm — May 19 1:00 pm, Oranjestad. Weather by CustomWeather, © 2019

Note: Actual official high and low records may vary slightly from our data, if they occured in-between our weather recording intervals... More about our weather records

Advertising

Oranjestad Weather History for the Previous 24 Hours

Scroll right to see more
 ConditionsComfort  
Time TempWeatherWind HumidityBarometerVisibility
1:00 pm
Sun, May 19
88 °FScattered clouds.23 mph66%29.89 "HgN/A
12:00 pm90 °FScattered clouds.26 mph63%29.89 "HgN/A
11:00 am88 °FScattered clouds.25 mph62%29.92 "HgN/A
10:00 am86 °FPartly sunny.22 mph70%29.92 "HgN/A
9:00 am84 °FScattered clouds.24 mph70%29.89 "HgN/A
8:00 am82 °FPassing clouds.21 mph74%29.89 "HgN/A
7:00 am81 °FPassing clouds.20 mph79%29.86 "HgN/A
6:00 am81 °FPassing clouds.20 mph79%29.86 "HgN/A
5:00 am81 °FPassing clouds.23 mph79%29.83 "HgN/A
4:00 am81 °FPassing clouds.22 mph79%29.83 "HgN/A
3:00 am81 °FPassing clouds.23 mph79%29.86 "HgN/A
2:00 am81 °FPassing clouds.21 mph79%29.86 "HgN/A
1:00 am81 °FPassing clouds.18 mph79%29.86 "HgN/A
12:00 am81 °FPassing clouds.22 mph79%29.89 "HgN/A
11:00 pm
Sat, May 18
81 °FPassing clouds.18 mph79%29.86 "HgN/A
10:00 pm81 °FPassing clouds.20 mph79%29.86 "HgN/A
9:00 pm81 °FPassing clouds.21 mph79%29.83 "HgN/A
8:00 pm82 °FPassing clouds.23 mph74%29.80 "HgN/A
7:00 pm82 °FPassing clouds.21 mph74%29.80 "HgN/A
6:00 pm84 °FPassing clouds.24 mph70%29.77 "HgN/A
5:00 pm84 °FPassing clouds.25 mph70%29.77 "HgN/A
4:00 pm86 °FPassing clouds.26 mph66%29.77 "HgN/A
3:00 pm88 °FPassing clouds.24 mph66%29.80 "HgN/A
2:00 pm88 °FPassing clouds.23 mph62%29.83 "HgN/A
Weather by CustomWeather, © 2019

See weather overview